| time (UTC) | temp F | wind direction | speed MPH | gust MPH | rain 1hr in | rain 24hr in | rain mn in | humidity % | barometer mb |
| 20260504213012 | 69 | 219 | 8.0 | 19.0 | 0.00 | 0.00 | 0.00 | 34 | 1004.4 |
| 20260504211517 | 70 | 234 | 7.0 | 16.0 | 0.00 | 0.00 | 0.00 | 33 | 1004.4 |
| 20260504210004 | 69 | 182 | 6.0 | 18.0 | 0.00 | 0.00 | 0.00 | 33 | 1004.4 |
| 20260504204607 | 70 | 219 | 7.0 | 16.0 | 0.00 | 0.00 | 0.00 | 33 | 1004.4 |
| 20260504203107 | 70 | 257 | 9.0 | 23.0 | 0.00 | 0.00 | 0.00 | 33 | 1004.4 |
| 20260504201618 | 70 | 210 | 5.0 | 19.0 | 0.00 | 0.00 | 0.00 | 32 | 1004.4 |
| 20260504200053 | 70 | 208 | 8.0 | 16.0 | 0.00 | 0.00 | 0.00 | 32 | 1004.7 |
| 20260504194552 | 70 | 238 | 11.0 | 21.0 | 0.00 | 0.00 | 0.00 | 33 | 1004.9 |
| 20260504193045 | 70 | 213 | 9.0 | 21.0 | 0.00 | 0.00 | 0.00 | 32 | 1004.8 |
| 20260504191542 | 69 | 226 | 10.0 | 18.0 | 0.00 | 0.00 | 0.00 | 32 | 1004.7 |
| 20260504190033 | 69 | 185 | 8.0 | 19.0 | 0.00 | 0.00 | 0.00 | 32 | 1004.7 |
| 20260504184534 | 68 | 160 | 9.0 | 21.0 | 0.00 | 0.00 | 0.00 | 32 | 1004.9 |
| 20260504183027 | 69 | 207 | 5.0 | 19.0 | 0.00 | 0.00 | 0.00 | 31 | 1005.2 |
| 20260504181530 | 68 | 212 | 6.0 | 23.0 | 0.00 | 0.00 | 0.00 | 31 | 1005.3 |
| 20260504180018 | 68 | 198 | 14.0 | 25.0 | 0.00 | 0.00 | 0.00 | 31 | 1005.4 |
| 20260504174515 | 67 | 196 | 10.0 | 21.0 | 0.00 | 0.00 | 0.00 | 32 | 1005.5 |
| 20260504173115 | 66 | 203 | 11.0 | 24.0 | 0.00 | 0.00 | 0.00 | 33 | 1005.6 |
| 20260504171612 | 66 | 252 | 11.0 | 26.0 | 0.00 | 0.00 | 0.00 | 33 | 1005.7 |
| 20260504090106 | 43 | 158 | 1.0 | 4.0 | 0.00 | 0.00 | 0.00 | 62 | 1008.1 |
| 20260504081547 | 43 | 147 | 1.0 | 5.0 | 0.00 | 0.00 | 0.00 | 60 | 1008.0 |
| 20260504050104 | 44 | 212 | 3.0 | 4.0 | 0.00 | 0.00 | 0.00 | 57 | 1008.1 |
| 20260504044600 | 44 | 193 | 1.0 | 3.0 | 0.00 | 0.00 | 0.00 | 57 | 1008.2 |
| 20260504043101 | 44 | 214 | 1.0 | 3.0 | 0.00 | 0.00 | 0.00 | 55 | 1008.3 |
| 20260504041551 | 44 | 213 | 2.0 | 4.0 | 0.00 | 0.00 | 0.00 | 55 | 1008.4 |
| 20260504040048 | 44 | 204 | 2.0 | 5.0 | 0.00 | 0.00 | 0.00 | 52 | 1008.3 |
| 20260504034544 | 44 | 212 | 2.0 | 5.0 | 0.00 | 0.00 | 0.00 | 52 | 1008.1 |
| 20260504033049 | 44 | 238 | 3.0 | 6.0 | 0.00 | 0.00 | 0.00 | 52 | 1007.9 |
| 20260504031535 | 43 | 229 | 3.0 | 6.0 | 0.00 | 0.00 | 0.00 | 54 | 1007.7 |
| 20260504030031 | 42 | 212 | 2.0 | 4.0 | 0.00 | 0.00 | 0.00 | 58 | 1007.6 |
| 20260504024540 | 42 | 249 | 1.0 | 4.0 | 0.00 | 0.00 | 0.00 | 59 | 1007.5 |
| 20260504023021 | 42 | 236 | 1.0 | 4.0 | 0.00 | 0.00 | 0.00 | 58 | 1007.5 |
| 20260504021517 | 42 | 252 | 1.0 | 4.0 | 0.00 | 0.00 | 0.00 | 58 | 1007.3 |
| 20260504020015 | 42 | 233 | 1.0 | 3.0 | 0.00 | 0.00 | 0.00 | 58 | 1007.3 |
| 20260504014506 | 43 | 220 | 1.0 | 4.0 | 0.00 | 0.00 | 0.00 | 57 | 1007.1 |
| 20260504013001 | 44 | 210 | 1.0 | 3.0 | 0.00 | 0.00 | 0.00 | 54 | 1007.2 |
| 20260504011601 | 45 | 211 | 0.0 | 3.0 | 0.00 | 0.00 | 0.00 | 52 | 1007.0 |
| 20260504010057 | 46 | 233 | 2.0 | 4.0 | 0.00 | 0.00 | 0.00 | 50 | 1006.9 |
| 20260504004602 | 46 | 221 | 0.0 | 2.0 | 0.00 | 0.00 | 0.00 | 48 | 1006.6 |
| 20260504003048 | 47 | 215 | 1.0 | 3.0 | 0.00 | 0.00 | 0.00 | 46 | 1006.4 |
| 20260504001547 | 48 | 259 | 0.0 | 3.0 | 0.00 | 0.00 | 0.00 | 45 | 1006.4 |
| 20260504000040 | 49 | 282 | 3.0 | 6.0 | 0.00 | 0.00 | 0.00 | 43 | 1006.1 |
| 20260503234538 | 49 | 238 | 2.0 | 7.0 | 0.00 | 0.00 | 0.00 | 42 | 1006.2 |
| 20260503233031 | 50 | 291 | 5.0 | 12.0 | 0.00 | 0.00 | 0.00 | 41 | 1006.1 |
| 20260503231525 | 51 | 279 | 2.0 | 12.0 | 0.00 | 0.00 | 0.00 | 40 | 1006.0 |
| 20260503230022 | 51 | 264 | 7.0 | 20.0 | 0.00 | 0.00 | 0.00 | 40 | 1006.0 |
| 20260503224518 | 50 | 205 | 4.0 | 12.0 | 0.00 | 0.00 | 0.00 | 41 | 1005.7 |
| 20260503223014 | 50 | 291 | 6.0 | 16.0 | 0.00 | 0.00 | 0.00 | 40 | 1005.7 |
| 20260503221510 | 50 | 282 | 4.0 | 13.0 | 0.00 | 0.00 | 0.00 | 41 | 1005.4 |
| 20260503220006 | 50 | 330 | 7.0 | 20.0 | 0.00 | 0.00 | 0.00 | 39 | 1005.4 |
| 20260503214610 | 51 | 279 | 8.0 | 21.0 | 0.00 | 0.00 | 0.00 | 39 | 1005.4 |